Location: Spruce Knob
(38.6995°N, 79.5330°W)
Time: 20:52:09
(UTC-04:00)

Transit 2A - Pass Details

Date: 13 August 2022
Orbit: 601 x 956 km, 66.7° (Epoch: 27 September)

Event Time Altitude Azimuth Distance (km) Brightness Sun altitude
Rises 22:22:03 0° 316° (NW) 2,871 10.5 -22.2°
Reaches altitude 10° 22:24:39 10° 301° (WNW) 1,987 9.2 -22.5°
Maximum altitude 22:28:04 22° 250° (WSW) 1,395 7.6 -23.0°
Enters shadow 22:30:13 16° 214° (SW) 1,685 7.7 -23.3°
